Weather History for Bloomington, IN

Change the Weather History Date:

Tuesday, January 1, 2013

  Actual Average Record
Temperature  
Mean Temperature 26 °F 29 °F  
Max Temperature 32 °F 38 °F 68 °F (2006)
Min Temperature 20 °F 21 °F 0 °F (1999)
Degree Days  
Heating Degree Days 39 36  
Month to date heating degree days 39 36  
Since 1 July heating degree days 2053 2109  
Cooling Degree Days 0 0  
Month to date cooling degree days 0 0  
Year to date cooling degree days 0 0  
Moisture  
Dew Point 25 °F    
Average Humidity 83    
Maximum Humidity 92    
Minimum Humidity 74    
Precipitation  
Precipitation T in 0.14 in 0.75 in (2011)
Month to date precipitation T 0.14  
Year to date precipitation T 0.14  
Sea Level Pressure  
Sea Level Pressure 30.11 in    
Wind  
Wind Speed 5 mph (North)    
Max Wind Speed 14 mph    
Max Gust Speed 15 mph    
Visibility 5 miles    
Events      
T = Trace of Precipitation, MM = Missing Value Source: NWS Daily Summary

Daily Weather History Graph

Daily Weather History Graph

Search for Another Location

Airport:

Trip Planner

Search our weather history database for the weather conditions in past years. The results will help you decide how hot, cold, wet, or windy it might be!

Date:

Astronomy

Jan. 01, 2013 Rise Set
Actual Time 8:05 AM EST 5:34 PM EST
Civil Twilight 7:35 AM EST 6:04 PM EST
Nautical Twilight 7:02 AM EST 6:38 PM EST
Astronomical Twilight 6:29 AM EST 7:10 PM EST
Moon 10:03 PM EST 10:19 AM EST
Length of Visible Light 10h 28m
Length of Day
9h 28m
Waning Gibbous, 83% of the Moon is Illuminated
Jan 1
Waning Gibbous
Jan 4
Last Quarter
Jan 11
New
Jan 18
First Quarter
Jan 26
Full

Hourly Weather History & Observations

Time (EST) Temp. Windchill Dew Point Humidity Pressure Visibility Wind Dir Wind Speed Gust Speed Precip Events Conditions
12:53 AM 32.0 °F 28.7 °F 30.0 °F 92% 30.07 in 4.0 mi West 3.5 mph - N/A   Overcast
1:53 AM 32.0 °F - 30.0 °F 92% 30.06 in 4.0 mi Calm Calm - N/A   Overcast
2:53 AM 32.0 °F 28.7 °F 30.9 °F 96% 30.07 in 6.0 mi NW 3.5 mph - N/A   Overcast
3:19 AM 32.0 °F - 30.2 °F 93% 30.04 in 2.5 mi Calm Calm - N/A   Overcast
3:42 AM 32.0 °F - 30.2 °F 93% 30.04 in 3.0 mi Calm Calm - 0.00 in   Overcast
3:53 AM 32.0 °F - 30.0 °F 92% 30.07 in 4.0 mi Calm Calm - 0.00 in   Overcast
4:53 AM 32.0 °F - 30.0 °F 92% 30.07 in 5.0 mi Calm Calm - N/A   Overcast
5:42 AM 32.0 °F 23.0 °F 28.4 °F 87% 30.06 in 6.0 mi North 11.5 mph - N/A   Overcast
5:53 AM 30.9 °F 23.5 °F 28.0 °F 89% 30.09 in 8.0 mi North 8.1 mph - N/A   Overcast
6:53 AM 30.9 °F 27.5 °F 28.0 °F 89% 30.10 in 6.0 mi Variable 3.5 mph - N/A   Overcast
7:11 AM 30.2 °F 25.4 °F 28.4 °F 93% 30.08 in 4.0 mi North 4.6 mph - N/A   Overcast
7:53 AM 30.0 °F 26.5 °F 28.0 °F 92% 30.10 in 4.0 mi North 3.5 mph - N/A   Overcast
8:31 AM 30.2 °F 23.4 °F 26.6 °F 86% 30.07 in 2.5 mi North 6.9 mph - N/A   Overcast
8:53 AM 28.9 °F 20.4 °F 27.0 °F 92% 30.08 in 2.5 mi North 9.2 mph - N/A   Overcast
9:05 AM 28.4 °F 20.4 °F 26.6 °F 93% 30.08 in 2.5 mi North 8.1 mph - N/A   Overcast
9:18 AM 28.4 °F 19.7 °F 24.8 °F 86% 30.09 in 4.0 mi North 9.2 mph - N/A   Overcast
9:53 AM 28.0 °F 18.6 °F 24.1 °F 85% 30.13 in 3.0 mi North 10.4 mph - N/A   Overcast
10:53 AM 28.0 °F 19.3 °F 23.0 °F 81% 30.14 in 3.0 mi North 9.2 mph - N/A   Haze
11:53 AM 28.0 °F 22.8 °F 23.0 °F 81% 30.15 in 2.5 mi NNE 4.6 mph - N/A   Haze
12:53 PM 28.0 °F 24.2 °F 24.1 °F 85% 30.12 in 3.0 mi NE 3.5 mph - N/A   Overcast
1:19 PM 28.4 °F 22.2 °F 24.8 °F 86% 30.10 in 2.5 mi North 5.8 mph - N/A   Overcast
1:29 PM 28.4 °F 22.2 °F 23.0 °F 80% 30.10 in 3.0 mi North 5.8 mph - N/A   Haze
1:53 PM 28.0 °F 21.7 °F 24.1 °F 85% 30.13 in 3.0 mi North 5.8 mph - N/A   Overcast
2:02 PM 28.4 °F 24.6 °F 24.8 °F 86% 30.10 in 3.0 mi North 3.5 mph - N/A   Overcast
2:53 PM 28.9 °F 25.2 °F 23.0 °F 78% 30.12 in 4.0 mi North 3.5 mph - N/A   Haze
3:53 PM 28.0 °F 20.8 °F 23.0 °F 81% 30.11 in 4.0 mi North 6.9 mph - N/A   Haze
4:29 PM 28.4 °F 23.3 °F 21.2 °F 74% 30.10 in 4.0 mi NNW 4.6 mph - N/A   Haze
4:53 PM 28.0 °F 22.8 °F 21.9 °F 78% 30.12 in 4.0 mi North 4.6 mph - N/A   Haze
5:20 PM 26.6 °F 21.2 °F 21.2 °F 80% 30.10 in 5.0 mi North 4.6 mph - N/A   Haze
5:53 PM 27.0 °F 21.6 °F 21.0 °F 78% 30.13 in 7.0 mi North 4.6 mph - N/A   Overcast
6:53 PM 26.1 °F 17.6 °F 21.0 °F 81% 30.13 in 7.0 mi North 8.1 mph - N/A   Overcast
7:53 PM 25.0 °F - 19.9 °F 81% 30.16 in 7.0 mi Calm Calm - N/A   Overcast
8:53 PM 25.0 °F 19.3 °F 19.0 °F 78% 30.18 in 7.0 mi North 4.6 mph - N/A   Overcast
9:53 PM 24.1 °F 19.7 °F 18.0 °F 77% 30.18 in 7.0 mi North 3.5 mph - N/A   Overcast
10:53 PM 23.0 °F 18.4 °F 17.1 °F 78% 30.19 in 8.0 mi NNW 3.5 mph - N/A   Mostly Cloudy
11:53 PM 21.0 °F 16.2 °F 16.0 °F 81% 30.20 in 9.0 mi NNW 3.5 mph - N/A   Clear